Wind_Speed
23 20 19 17 15 13 14 13 13 11 13 20 21 26 31 33 33 34 37 38 38 37 35 34 34 35 35 35 35 34 32 30 29 30 32 34 35 37 40 44 47 51 53 53
16 14 10 7 4 3 6 8 9 10 18 23 27 30 31 31 31 32 33 33 32 32 31 32 33 33 33 33 32 30 27 26 27 30 31 32 35 39 43 47 50 52 52 55
15 13 11 8 5 6 8 9 12 19 26 28 30 29 29 28 28 28 29 29 29 28 28 28 28 28 28 27 25 24 23 25 27 28 30 34 38 42 46 49 51 53 56 59
15 15 13 8 7 9 11 16 21 26 29 29 26 25 24 23 22 24 24 24 23 22 21 21 21 20 20 20 20 21 23 24 26 30 34 38 41 45 48 50 53 55 58 62
15 16 16 16 15 15 19 23 26 27 27 27 24 23 20 18 17 17 17 16 16 15 14 14 14 15 16 17 18 20 23 26 29 33 37 41 44 47 49 52 54 57 60 63
12 14 16 19 21 22 24 26 23 21 20 21 20 19 17 15 13 12 11 11 11 11 10 11 12 13 15 17 19 22 25 29 32 36 39 42 45 48 50 52 55 58 61 61
9 9 10 12 14 16 17 18 16 15 14 15 15 14 13 12 11 10 9 9 9 9 10 11 13 15 17 19 21 25 28 31 34 37 40 43 46 48 51 54 56 57 58 60
7 8 7 7 7 9 9 10 10 10 11 11 12 12 12 13 13 12 11 11 10 11 12 13 15 17 19 21 24 27 30 33 36 39 41 44 46 49 52 53 54 55 57 60
6 6 7 7 7 6 6 7 8 9 10 11 12 13 13 13 13 12 11 11 11 12 14 15 17 19 21 24 27 29 32 34 37 39 42 45 48 50 51 51 53 55 58 63
11 10 9 8 7 5 4 5 7 8 10 11 12 13 13 13 12 12 12 12 13 13 14 16 18 20 22 25 28 31 34 36 38 40 43 45 47 48 49 51 53 57 62 68
15 14 12 10 7 5 5 4 5 7 8 10 12 13 14 14 14 14 14 13 13 13 14 15 18 21 25 28 31 33 34 36 39 41 43 44 46 47 49 53 57 62 67 72
16 16 14 11 7 6 6 5 5 6 6 6 8 11 13 15 15 14 14 13 13 13 15 18 22 26 28 30 31 33 35 38 39 41 43 44 46 49 52 56 62 67 72 78
15 16 15 12 10 9 8 7 7 8 7 6 6 8 10 12 12 12 12 12 14 17 20 24 27 29 30 31 33 35 37 38 40 41 42 44 47 50 55 61 67 72 77 82
16 17 17 16 15 13 12 10 9 10 9 9 8 7 7 8 9 10 12 15 18 22 25 28 30 31 31 33 35 36 38 39 40 41 43 46 49 54 59 64 70 75 80 85
20 20 20 19 19 19 18 16 13 12 11 11 10 9 8 8 10 13 16 20 23 26 28 30 31 31 32 34 35 36 37 38 40 42 45 49 54 59 64 69 73 78 83 88
20 20 19 18 17 17 17 16 14 13 12 11 11 10 11 13 16 19 22 25 27 28 29 29 30 31 33 34 35 36 37 39 41 45 49 54 59 64 68 72 77 83 87 87
13 14 15 14 12 12 13 13 13 14 13 12 13 14 17 19 22 25 26 28 28 28 28 29 30 31 33 34 35 36 38 40 44 49 54 58 63 67 71 76 82 87 87 80
8 10 11 11 11 12 13 14 15 15 16 16 18 20 22 25 26 27 28 28 28 27 27 28 30 31 33 34 35 37 40 44 49 53 58 62 66 70 75 81 86 86 78 66
10 11 11 11 11 11 12 13 15 17 18 20 22 24 25 26 26 27 27 27 27 27 28 29 30 32 33 34 37 40 44 48 52 57 61 65 70 74 80 86 85 78 66 55
14 14 13 13 13 13 14 15 17 19 21 22 23 24 25 26 26 26 27 27 27 27 28 30 31 31 33 36 40 44 48 52 56 61 64 68 73 79 85 85 77 66 54 44
18 19 19 18 18 18 19 20 22 23 23 23 24 25 26 26 27 27 27 27 27 28 29 29 30 32 36 39 43 47 51 56 60 64 68 72 79 84 84 77 65 54 44 32
20 21 22 23 23 24 24 24 24 25 25 25 26 26 27 27 27 27 27 28 28 28 28 30 32 36 39 43 47 51 56 60 64 67 72 78 83 83 75 64 54 44 32 18
20 21 22 23 24 24 24 25 25 25 26 26 26 27 27 27 27 28 28 28 27 28 29 32 35 38 42 46 51 55 59 63 67 71 77 82 81 74 63 54 44 33 18 5
20 21 21 22 22 22 23 24 25 25 26 26 26 26 27 28 28 28 27 26 27 29 32 34 38 42 46 50 55 59 62 66 70 76 81 80 73 63 53 44 32 17 3 9
22 23 23 23 23 23 23 24 24 25 26 26 27 27 28 28 27 26 25 26 29 31 34 38 42 46 50 54 58 61 65 69 75 80 80 72 62 52 41 30 17 3 11 16
24 24 24 24 24 24 24 24 25 26 26 27 27 27 27 26 25 25 26 29 32 35 38 42 46 50 53 56 60 63 67 73 79 80 73 62 51 39 27 15 4 12 17 17
27 27 26 26 25 25 25 26 27 27 27 27 26 25 25 25 26 27 29 33 36 39 43 46 50 52 55 58 62 66 72 77 79 74 63 50 38 25 13 3 11 17 18 15
Wind_Direction
334 329 315 303 289 272 256 243 235 211 182 159 157 162 171 174 178 186 192 197 202 208 214 222 229 234 238 242 245 248 252 258 265 273 278 282 286 291 294 297 298 300 302 303
5 1 355 343 315 238 203 199 188 172 143 145 149 157 166 173 180 188 194 199 203 210 217 222 227 231 235 240 245 250 257 265 272 277 281 286 291 295 296 298 300 302 303 305
32 28 26 35 60 94 106 119 124 126 130 140 145 153 161 169 179 187 194 199 205 210 215 219 224 229 235 241 249 257 266 272 276 280 286 291 294 296 298 300 301 303 305 305
42 41 41 54 84 100 107 118 124 127 135 142 146 147 150 157 166 176 184 191 197 203 210 216 223 231 240 249 258 266 271 276 281 287 291 293 295 297 299 301 302 304 304 305
60 64 68 80 97 113 122 126 130 129 130 133 133 134 139 145 152 161 170 179 188 197 207 217 229 240 251 259 265 272 278 283 287 290 293 295 297 299 300 302 303 304 304 305
76 79 84 90 96 107 121 124 126 125 125 128 132 136 142 149 156 165 178 188 197 205 214 227 240 251 258 265 273 279 283 287 290 293 295 297 298 300 301 302 303 304 305 306
107 103 103 104 106 116 124 128 132 135 137 142 148 153 159 167 175 183 192 204 216 227 238 247 255 261 267 273 279 283 287 290 292 294 296 298 299 300 301 302 303 305 307 308
152 145 142 143 141 144 148 155 161 167 172 177 181 183 186 192 198 205 212 222 234 242 248 254 259 265 272 278 283 287 289 291 293 295 296 297 299 300 302 304 306 307 308 310
193 176 168 168 169 176 185 193 203 212 216 217 216 212 209 208 211 216 222 226 233 242 250 259 266 273 280 284 287 289 291 293 295 296 297 299 301 303 305 306 308 309 310 311
210 203 192 184 180 182 194 207 214 222 229 232 230 226 222 219 218 220 224 229 239 250 261 270 277 283 287 290 292 293 295 296 297 298 300 302 304 305 307 308 309 310 312 314
212 206 201 199 195 187 175 179 203 220 228 231 229 226 226 227 228 229 230 238 250 260 269 279 288 293 295 295 295 296 297 298 300 302 304 305 306 307 309 310 312 314 316 317
213 209 208 208 205 194 188 200 222 234 241 242 232 226 225 226 228 231 239 250 260 271 282 291 296 297 297 297 297 299 301 303 304 306 306 307 308 311 313 315 316 318 319 320
219 215 217 220 217 210 213 233 257 262 255 240 233 225 223 225 231 241 253 266 276 282 288 292 295 297 298 299 301 303 304 306 306 307 308 309 312 315 317 318 319 320 320 321
231 228 230 232 232 230 231 246 266 267 254 241 234 225 223 230 244 260 271 278 281 284 288 293 297 299 301 303 304 305 306 307 307 308 311 314 317 318 318 319 319 320 321 321
235 236 240 244 246 245 246 252 257 257 251 240 231 232 242 257 271 278 281 283 286 289 293 297 300 301 302 304 305 307 307 308 310 313 315 317 318 319 319 320 321 321 322 323
234 237 240 245 246 242 240 243 247 243 234 230 235 247 262 275 281 285 287 289 291 294 296 298 298 300 303 306 308 308 309 311 314 316 318 319 319 320 320 321 322 322 323 324
225 224 225 227 225 224 229 233 232 228 232 241 252 264 274 282 286 288 290 292 294 295 295 297 300 304 308 309 309 311 313 315 317 318 319 320 320 321 322 322 323 323 324 325
204 204 209 215 224 229 229 228 230 236 244 255 265 274 281 285 288 289 292 294 295 296 298 302 306 309 310 310 311 313 316 317 319 320 321 321 321 322 323 323 323 324 324 325
213 210 214 222 231 236 238 242 250 259 267 273 279 283 285 287 288 291 294 296 297 299 303 306 308 308 309 311 314 316 318 320 321 321 322 322 322 323 324 323 323 324 324 324
226 226 228 235 244 251 257 264 270 274 277 280 283 285 287 288 291 293 295 297 299 302 304 306 307 308 311 315 318 320 321 322 323 323 323 323 324 324 324 323 323 323 324 324
233 236 239 244 250 256 263 268 272 275 277 279 282 285 288 290 292 294 296 298 301 303 304 305 307 311 315 319 321 322 323 324 324 324 324 324 325 324 324 324 324 323 324 323
239 242 246 250 255 260 264 268 271 273 276 279 281 284 287 290 293 295 297 299 301 303 305 307 311 315 319 321 323 324 325 325 325 324 325 325 325 326 326 325 324 324 323 320
244 246 249 254 258 262 265 267 271 274 275 277 279 283 288 291 293 295 298 300 302 305 308 311 315 319 321 323 324 326 326 325 325 326 326 327 327 327 327 326 326 325 322 308
246 248 251 255 258 261 265 268 271 273 274 278 282 286 289 291 293 296 299 302 305 308 311 315 318 320 322 324 326 326 326 326 326 327 327 328 329 329 328 329 329 329 329 147
248 251 254 257 259 261 265 268 271 273 277 280 284 286 288 290 293 297 300 304 308 311 314 317 320 322 324 325 326 326 326 327 327 328 329 330 330 330 331 333 338 32 137 140
249 252 255 257 260 262 265 267 270 272 276 278 281 283 285 288 293 297 302 306 309 313 317 319 321 324 325 326 326 326 327 327 328 329 330 331 330 331 335 343 53 132 137 135
249 252 255 257 259 261 263 266 268 271 273 275 277 279 283 288 294 300 304 307 311 315 319 322 324 326 326 326 326 326 327 328 329 330 330 330 331 333 341 54 132 139 136 129
Height
5550 5546 5543 5541 5540 5539 5538 5540 5542 5546 5549 5555 5560 5567 5575 5582 5591 5601 5611 5619 5626 5633 5639 5644 5649 5653 5656 5659 5660 5661 5661 5661 5661 5661 5660 5657 5655 5653 5649 5645 5640 5634 5628 5621
5551 5547 5543 5541 5541 5540 5541 5543 5544 5547 5551 5557 5562 5570 5578 5585 5593 5601 5610 5617 5624 5630 5635 5639 5643 5647 5650 5653 5654 5655 5655 5654 5654 5653 5651 5649 5647 5643 5639 5634 5628 5622 5616 5609
5555 5551 5549 5547 5546 5545 5546 5547 5549 5552 5557 5562 5567 5574 5580 5587 5594 5601 5608 5615 5621 5626 5631 5635 5638 5642 5645 5647 5648 5648 5648 5647 5647 5645 5643 5641 5638 5634 5629 5623 5618 5611 5605 5597
5559 5558 5555 5555 5551 5551 5551 5552 5555 5558 5562 5568 5573 5578 5584 5590 5596 5602 5609 5614 5619 5624 5628 5631 5634 5638 5640 5641 5642 5641 5641 5640 5639 5637 5635 5632 5629 5624 5619 5613 5607 5600 5592 5584
5564 5563 5561 5560 5558 5557 5559 5561 5564 5567 5570 5575 5579 5585 5590 5595 5600 5605 5610 5614 5618 5622 5625 5627 5630 5633 5634 5635 5635 5635 5634 5633 5632 5630 5627 5623 5619 5614 5609 5602 5595 5588 5580 5572
5569 5569 5568 5569 5568 5568 5570 5572 5575 5577 5580 5583 5587 5591 5596 5599 5603 5607 5610 5613 5616 5619 5622 5624 5626 5628 5629 5629 5629 5629 5628 5627 5625 5622 5618 5614 5609 5604 5598 5591 5584 5576 5568 5559
5573 5573 5573 5574 5574 5576 5579 5580 5582 5584 5586 5588 5591 5594 5598 5600 5604 5607 5609 5612 5614 5616 5618 5620 5622 5623 5623 5623 5623 5623 5621 5619 5616 5613 5609 5604 5599 5593 5587 5580 5573 5565 5556 5547
5574 5575 5578 5577 5578 5580 5582 5582 5583 5585 5588 5590 5592 5595 5597 5600 5602 5605 5607 5609 5611 5613 5614 5616 5617 5618 5618 5618 5617 5616 5613 5611 5607 5604 5599 5594 5589 5583 5576 5569 5561 5553 5544 5534
5575 5578 5577 5577 5579 5580 5582 5583 5584 5586 5588 5589 5591 5593 5595 5597 5599 5601 5603 5605 5607 5609 5611 5612 5613 5613 5612 5611 5610 5608 5605 5602 5598 5594 5589 5584 5578 5572 5565 5557 5549 5540 5532 5522
5573 5575 5576 5577 5578 5579 5581 5582 5583 5585 5587 5588 5590 5591 5592 5594 5596 5598 5600 5602 5604 5606 5607 5607 5607 5607 5606 5605 5603 5600 5597 5594 5589 5585 5580 5574 5568 5561 5553 5545 5537 5528 5519 5509
5571 5574 5575 5576 5577 5578 5579 5581 5582 5584 5585 5586 5587 5588 5590 5592 5594 5596 5598 5600 5601 5602 5602 5602 5602 5601 5600 5598 5595 5592 5589 5585 5581 5575 5570 5563 5556 5549 5541 5533 5524 5515 5505 5493
5569 5572 5574 5575 5576 5577 5578 5580 5581 5582 5583 5583 5584 5585 5587 5589 5591 5594 5595 5596 5597 5597 5598 5597 5596 5595 5593 5590 5588 5584 5580 5576 5571 5565 5559 5552 5545 5538 5529 5521 5510 5499 5487 5474
5567 5569 5572 5574 5575 5576 5577 5578 5579 5580 5581 5582 5582 5584 5585 5587 5589 5591 5592 5593 5593 5593 5593 5592 5590 5588 5586 5583 5580 5576 5571 5566 5561 5555 5549 5542 5535 5527 5518 5507 5494 5482 5470 5456
5564 5567 5569 5571 5573 5574 5575 5576 5577 5578 5579 5580 5581 5582 5584 5585 5587 5588 5589 5589 5589 5588 5587 5586 5584 5581 5578 5575 5571 5567 5562 5557 5551 5545 5539 5532 5524 5515 5506 5495 5484 5469 5454 5439
5561 5563 5566 5567 5569 5571 5572 5574 5575 5576 5577 5578 5580 5581 5582 5583 5584 5585 5585 5584 5583 5582 5580 5578 5576 5573 5570 5567 5562 5558 5553 5547 5541 5535 5528 5521 5512 5502 5492 5480 5468 5455 5440 5424
5557 5559 5561 5563 5564 5566 5568 5570 5572 5573 5575 5576 5577 5579 5579 5580 5580 5580 5579 5578 5577 5575 5573 5571 5569 5566 5562 5558 5554 5549 5543 5537 5531 5525 5517 5508 5499 5489 5478 5465 5452 5437 5423 5409
5553 5555 5558 5560 5561 5563 5565 5567 5569 5571 5572 5573 5574 5575 5575 5576 5575 5574 5573 5572 5570 5568 5566 5564 5561 5557 5554 5549 5545 5539 5534 5528 5521 5514 5505 5496 5486 5475 5463 5450 5436 5421 5406 5391
5552 5554 5556 5558 5559 5561 5563 5565 5567 5568 5569 5570 5571 5571 5571 5570 5569 5568 5567 5565 5563 5561 5558 5556 5553 5549 5545 5541 5536 5531 5525 5518 5511 5502 5493 5483 5472 5461 5448 5434 5420 5405 5391 5378
5551 5553 5554 5556 5558 5559 5561 5563 5564 5565 5566 5566 5566 5566 5565 5564 5563 5561 5560 5558 5556 5554 5551 5548 5545 5541 5537 5533 5527 5522 5515 5507 5499 5490 5481 5470 5458 5445 5432 5418 5403 5388 5377 5367
5549 5550 5552 5554 5556 5557 5558 5560 5560 5561 5561 5561 5561 5560 5559 5558 5556 5555 5553 5551 5549 5547 5544 5541 5537 5533 5529 5524 5518 5512 5504 5496 5488 5478 5467 5456 5443 5430 5416 5401 5386 5374 5365 5357
5545 5547 5549 5550 5552 5553 5554 5555 5555 5555 5555 5555 5554 5554 5553 5552 5550 5549 5547 5545 5543 5540 5537 5533 5530 5526 5521 5515 5509 5502 5494 5485 5475 5465 5454 5442 5429 5414 5399 5383 5371 5361 5354 5349
5540 5542 5544 5545 5546 5547 5548 5549 5549 5549 5549 5548 5548 5547 5546 5545 5544 5542 5541 5539 5536 5533 5530 5526 5522 5517 5512 5506 5499 5491 5482 5473 5463 5451 5440 5427 5413 5398 5382 5368 5358 5350 5345 5343
5535 5536 5538 5539 5540 5541 5542 5542 5542 5543 5542 5542 5541 5541 5540 5538 5537 5536 5534 5532 5529 5526 5523 5519 5514 5508 5502 5496 5488 5480 5470 5460 5449 5438 5426 5412 5396 5381 5368 5356 5348 5342 5339 5338
5529 5530 5531 5533 5534 5535 5535 5536 5536 5536 5536 5535 5535 5534 5533 5532 5531 5529 5527 5525 5522 5519 5515 5510 5505 5499 5493 5485 5477 5468 5458 5448 5436 5424 5410 5395 5381 5368 5357 5348 5340 5336 5336 5338
5523 5524 5526 5527 5528 5529 5529 5529 5530 5530 5530 5529 5529 5528 5527 5526 5525 5523 5521 5518 5515 5511 5507 5502 5496 5490 5483 5475 5466 5456 5446 5435 5423 5410 5396 5382 5370 5359 5350 5343 5338 5336 5338 5341
5517 5518 5520 5521 5522 5522 5523 5523 5523 5524 5523 5523 5522 5522 5521 5520 5518 5516 5514 5511 5507 5503 5498 5493 5487 5480 5472 5463 5454 5444 5433 5422 5409 5395 5383 5371 5361 5353 5346 5342 5340 5340 5343 5345
5510 5512 5513 5514 5515 5516 5516 5517 5517 5517 5517 5516 5516 5515 5514 5513 5511 5509 5506 5503 5499 5495 5489 5483 5476 5469 5461 5452 5442 5432 5421 5409 5396 5384 5373 5363 5355 5350 5346 5344 5344 5346 5348 5350